Weather History for St. Johns, AZ

Change the Weather History Date:

Sunday, November 27, 2011

  Actual Average (KSOW) Record (KSOW)
Temperature  
Mean Temperature 34 °F -  
Max Temperature 48 °F 49 °F 66 °F (1998)
Min Temperature 19 °F 29 °F 7 °F (1973)
Degree Days  
Heating Degree Days 32    
Moisture  
Dew Point 14 °F    
Average Humidity 49    
Maximum Humidity 81    
Minimum Humidity 20    
Precipitation  
Precipitation 0.00 in - - ()
Sea Level Pressure  
Sea Level Pressure 30.52 in    
Wind  
Wind Speed 3 mph (South)    
Max Wind Speed 8 mph    
Max Gust Speed -    
Visibility 10 miles    
Events      
Averages and records for this station are not official NWS values.
T = Trace of Precipitation, MM = Missing Value Source: NWS Daily Summary

Daily Weather History Graph

Daily Weather History Graph

Search for Another Location

Airport:

Trip Planner

Search our weather history database for the weather conditions in past years. The results will help you decide how hot, cold, wet, or windy it might be!

Date:

Astronomy

Nov. 27, 2011 Rise Set
Actual Time 7:02 AM MST 5:07 PM MST
Civil Twilight 6:34 AM MST 5:35 PM MST
Nautical Twilight 6:03 AM MST 6:06 PM MST
Astronomical Twilight 5:33 AM MST 6:36 PM MST
Moon 9:28 AM MST (11/27) 7:50 PM MST (11/27)
Length of Visible Light 11h 00m
Length of Day
10h 05m
Waxing Crescent, 9% of the Moon is Illuminated
Nov 27
Waxing Crescent
Dec 2
First Quarter
Dec 10
Full
Dec 17
Last Quarter
Dec 24
New

Hourly Weather History & Observations

Time (MST) Temp. Windchill Dew Point Humidity Pressure Visibility Wind Dir Wind Speed Gust Speed Precip Events Conditions
12:54 AM 27.0 °F 23.0 °F 12.9 °F 56% 30.53 in 10.0 mi SSE 3.5 mph - N/A   Clear
1:54 AM 27.0 °F - 10.9 °F 51% 30.53 in 10.0 mi Calm Calm - N/A   Clear
2:54 AM 23.0 °F 18.4 °F 12.0 °F 63% 30.53 in 10.0 mi South 3.5 mph - N/A   Clear
3:54 AM 24.1 °F 19.7 °F 14.0 °F 65% 30.53 in 10.0 mi South 3.5 mph - N/A   Clear
4:54 AM 21.9 °F 15.7 °F 15.1 °F 75% 30.56 in 10.0 mi South 4.6 mph - N/A   Clear
6:54 AM 19.0 °F - 14.0 °F 81% 30.63 in 10.0 mi Calm Calm - N/A   Clear
7:54 AM 24.8 °F - 15.8 °F 69% 30.57 in 10.0 mi Calm Calm - N/A   Clear
8:54 AM 28.0 °F 24.2 °F 18.0 °F 66% 30.63 in 10.0 mi NNE 3.5 mph - N/A   Clear
9:54 AM 34.0 °F - 17.1 °F 50% 30.61 in 10.0 mi Calm Calm - N/A   Clear
10:54 AM 37.0 °F 32.4 °F 12.0 °F 36% 30.60 in 10.0 mi NW 5.8 mph - N/A   Clear
11:54 AM 42.1 °F - 9.0 °F 26% 30.55 in 10.0 mi Calm Calm - N/A   Clear
12:54 PM 45.0 °F - 8.1 °F 22% 30.51 in 10.0 mi Calm Calm - N/A   Clear
1:54 PM 46.9 °F - 8.1 °F 21% 30.47 in 10.0 mi Calm Calm - N/A   Clear
2:54 PM 48.9 °F - 9.0 °F 20% 30.46 in 10.0 mi West 4.6 mph - N/A   Clear
3:54 PM 48.9 °F - 9.0 °F 20% 30.44 in 10.0 mi NW 4.6 mph - N/A   Clear
4:54 PM 48.0 °F - 10.0 °F 22% 30.44 in 10.0 mi Calm Calm - N/A   Clear
5:54 PM 37.0 °F - 16.0 °F 42% 30.49 in 10.0 mi Calm Calm - N/A   Clear
6:54 PM 33.1 °F - 17.1 °F 52% 30.51 in 5.0 mi Calm Calm - N/A   Haze
7:54 PM 30.0 °F 24.1 °F 17.1 °F 59% 30.51 in 8.0 mi South 5.8 mph - N/A   Clear
8:54 PM 30.0 °F 25.2 °F 16.0 °F 56% 30.51 in 10.0 mi SSE 4.6 mph - N/A   Clear
9:54 PM 32.0 °F - 16.0 °F 52% 30.48 in 9.0 mi Calm Calm - N/A   Clear
10:54 PM 30.0 °F 22.4 °F 18.0 °F 61% 30.46 in 10.0 mi South 8.1 mph - N/A   Clear
11:54 PM 30.9 °F 23.5 °F 19.0 °F 61% 30.42 in 10.0 mi SSE 8.1 mph - N/A   Clear